Bentonville, AR

6:51 PM CST on January 22, 2017 (GMT -0600)
Northwest Arkansas Regional

Weather History for KXNA - May, 2013

Change the Weather History Date:

Friday, May 17, 2013

  Actual Average (KVBT) Record (KVBT)
Temperature  
Mean Temperature 68 °F -  
Max Temperature 81 °F 78 °F 87 °F (1964)
Min Temperature 55 °F 53 °F 37 °F (1973)
Cooling Degree Days 2    
Growing Degree Days 18 (Base 50)    
Moisture  
Dew Point 59 °F    
Average Humidity 89    
Maximum Humidity 100    
Minimum Humidity 54    
Precipitation  
Precipitation 0.00 in - - ()
Sea Level Pressure  
Sea Level Pressure 29.89 in    
Wind  
Wind Speed 0 mph (ESE)    
Max Wind Speed 6 mph    
Max Gust Speed -    
Visibility 4 miles    
Events Fog    
Averages and records for this station are not official NWS values.
T = Trace of Precipitation, MM = Missing Value Source: NWS Daily Summary

Daily Weather History Graph

Daily Weather History Graph

Search for Another Location

Airport or City:

Trip Planner

Search our weather history database for the weather conditions in past years. The results will help you decide how hot, cold, wet, or windy it might be!

Date:

Astronomy

May. 17, 2013 Rise Set
Actual Time 6:09 AM CDT 8:18 PM CDT
Civil Twilight 5:40 AM CDT 8:47 PM CDT
Nautical Twilight 5:05 AM CDT 9:22 PM CDT
Astronomical Twilight 4:26 AM CDT 10:01 PM CDT
Moon 12:37 PM CDT (5/17) 1:16 AM CDT (5/17)
Length of Visible Light 15h 07m
Length of Day
14h 09m
Waxing Crescent, 45% of the Moon is Illuminated
May 17
Waxing Crescent
May 17
First Quarter
May 24
Full
May 31
Last Quarter
Jun 8
New

Hourly Weather History & Observations

Time (CDT) Temp. Heat Index Dew Point Humidity Pressure Visibility Wind Dir Wind Speed Gust Speed Precip Events Conditions
12:53 AM 62.1 °F - 61.0 °F 96% 29.87 in 10.0 mi Calm Calm - N/A   Mostly Cloudy
1:07 AM 60.8 °F - 60.8 °F 100% 29.89 in 8.0 mi Calm Calm - N/A   Mostly Cloudy
1:26 AM 60.8 °F - 60.8 °F 100% 29.89 in 1.8 mi Calm Calm - N/A   Partly Cloudy
1:34 AM 60.8 °F - 60.8 °F 100% 29.89 in 3.0 mi SSE 3.5 mph - N/A   Mostly Cloudy
1:39 AM 60.8 °F - 60.8 °F 100% 29.89 in 1.8 mi Calm Calm - N/A   Mostly Cloudy
1:47 AM 60.8 °F - 60.8 °F 100% 29.88 in 0.2 mi Calm Calm - N/A Fog Fog
1:48 AM 60.1 °F - 60.1 °F 100% 29.86 in 0.2 mi Calm Calm - N/A Fog Fog
2:03 AM 60.8 °F - 60.8 °F 100% 29.88 in 0.8 mi Calm Calm - N/A   Clear
2:07 AM 60.8 °F - 59.0 °F 94% 29.88 in 2.0 mi Calm Calm - N/A   Clear
2:18 AM 57.2 °F - 57.2 °F 100% 29.88 in 1.0 mi Calm Calm - N/A   Mist
2:27 AM 57.2 °F - 57.2 °F 100% 29.88 in 0.5 mi Calm Calm - N/A Fog Fog
2:48 AM 57.2 °F - 57.2 °F 100% 29.88 in 0.2 mi Calm Calm - N/A Fog Fog
2:53 AM 57.0 °F - 57.0 °F 100% 29.86 in 0.2 mi Calm Calm - N/A Fog Fog
3:01 AM 57.2 °F - 57.2 °F 100% 29.88 in 0.2 mi Calm Calm - N/A Fog Fog
3:12 AM 57.2 °F - 57.2 °F 100% 29.88 in 0.2 mi Calm Calm - N/A Fog Fog
3:44 AM 55.4 °F - 55.4 °F 100% 29.88 in 0.2 mi Calm Calm - N/A Fog Fog
3:53 AM 55.9 °F - 55.9 °F 100% 29.86 in 0.5 mi Calm Calm - N/A Fog Fog
4:20 AM 55.4 °F - 55.4 °F 100% 29.88 in 1.0 mi Calm Calm - N/A   Overcast
4:32 AM 55.4 °F - 55.4 °F 100% 29.88 in 1.0 mi Calm Calm - N/A   Overcast
4:38 AM 55.4 °F - 55.4 °F 100% 29.88 in 0.5 mi Calm Calm - N/A Fog Fog
4:50 AM 55.4 °F - 55.4 °F 100% 29.89 in 0.2 mi Calm Calm - N/A Fog Fog
4:53 AM 55.9 °F - 55.9 °F 100% 29.87 in 0.2 mi Calm Calm - N/A Fog Fog
5:10 AM 55.4 °F - 55.4 °F 100% 29.89 in 0.2 mi Calm Calm - N/A Fog Fog
5:25 AM 55.4 °F - 55.4 °F 100% 29.89 in 0.2 mi Calm Calm - N/A Fog Fog
5:33 AM 55.4 °F - 55.4 °F 100% 29.89 in 0.5 mi Calm Calm - N/A Fog Fog
5:43 AM 55.4 °F - 55.4 °F 100% 29.89 in 0.2 mi Calm Calm - N/A Fog Fog
5:53 AM 55.0 °F - 55.0 °F 100% 29.88 in 0.2 mi Calm Calm - N/A Fog Fog
6:01 AM 55.4 °F - 55.4 °F 100% 29.90 in 0.5 mi Calm Calm - N/A Fog Fog
6:11 AM 55.4 °F - 55.4 °F 100% 29.90 in 0.2 mi Calm Calm - N/A Fog Fog
6:34 AM 55.4 °F - 55.4 °F 100% 29.91 in 0.2 mi Calm Calm - N/A Fog Fog
7:07 AM 55.4 °F - 55.4 °F 100% 29.92 in 0.2 mi Calm Calm - N/A Fog Fog
7:53 AM 57.0 °F - 57.0 °F 100% 29.91 in 0.2 mi Calm Calm - N/A Fog Fog
8:26 AM 60.8 °F - 60.8 °F 100% 29.93 in 0.5 mi Calm Calm - N/A Fog Fog
8:30 AM 60.8 °F - 60.8 °F 100% 29.94 in 2.5 mi Calm Calm - N/A   Mostly Cloudy
8:37 AM 62.6 °F - 60.8 °F 94% 29.94 in 8.0 mi Calm Calm - N/A   Mostly Cloudy
8:49 AM 62.6 °F - 62.6 °F 100% 29.94 in 10.0 mi Variable 3.5 mph - N/A   Mostly Cloudy
8:53 AM 62.1 °F - 62.1 °F 100% 29.92 in 10.0 mi Calm Calm - N/A   Scattered Clouds
9:53 AM 66.9 °F - 62.1 °F 84% 29.91 in 10.0 mi Calm Calm - N/A   Partly Cloudy
10:41 AM 71.6 °F - 62.6 °F 73% 29.95 in 10.0 mi Calm Calm - N/A   Mostly Cloudy
10:53 AM 70.0 °F - 62.1 °F 76% 29.92 in 10.0 mi Variable 3.5 mph - N/A   Mostly Cloudy
11:04 AM 71.6 °F - 62.6 °F 73% 29.94 in 10.0 mi East 4.6 mph - N/A   Scattered Clouds
11:53 AM 72.0 °F - 62.1 °F 71% 29.92 in 10.0 mi East 5.8 mph - N/A   Scattered Clouds
12:15 PM 73.4 °F - 62.6 °F 69% 29.95 in 10.0 mi East 3.5 mph - N/A   Mostly Cloudy
12:25 PM 73.4 °F - 62.6 °F 69% 29.94 in 10.0 mi Calm Calm - N/A   Scattered Clouds
12:53 PM 75.0 °F - 61.0 °F 62% 29.91 in 10.0 mi SE 4.6 mph - N/A   Partly Cloudy
2:53 PM 78.1 °F - 61.0 °F 56% 29.89 in 10.0 mi ESE 3.5 mph - N/A   Clear
3:53 PM 78.1 °F - 61.0 °F 56% 29.88 in 10.0 mi Calm Calm - N/A   Partly Cloudy
4:53 PM 79.0 °F - 61.0 °F 54% 29.86 in 10.0 mi Calm Calm - N/A   Partly Cloudy
5:53 PM 79.0 °F - 62.1 °F 56% 29.86 in 10.0 mi Calm Calm - N/A   Clear
6:53 PM 80.1 °F 81.2 °F 62.1 °F 54% 29.86 in 10.0 mi Calm Calm - N/A   Clear
7:53 PM 77.0 °F - 63.0 °F 62% 29.86 in 10.0 mi Calm Calm - N/A   Mostly Cloudy
8:53 PM 73.9 °F - 64.0 °F 71% 29.87 in 10.0 mi East 3.5 mph - N/A   Mostly Cloudy
9:53 PM 73.0 °F - 63.0 °F 71% 29.89 in 10.0 mi Calm Calm - N/A   Mostly Cloudy
10:53 PM 70.0 °F - 64.0 °F 81% 29.90 in 10.0 mi Calm Calm - N/A   Clear
11:53 PM 69.1 °F - 64.0 °F 84% 29.91 in 10.0 mi Calm Calm - N/A   Mostly Cloudy